Vorticity
9 5 10 8 2 3 2 3 2 4 5 5 6 5 5 8 10 7 8 10 7 11 10 4 4 5 5 5 6 5 4 3 2 4 5 4 4 4 1 -2 1 4 4 4 3 3 3 4 5 4 4 5 4 3 3 3 3 4 3 4 4 4 3 4 4 4 4 4 4 5 5 4 6 6 5 5 4 6 6 6 6 6 5 5 6 6 7 7
10 4 5 9 6 4 5 5 4 7 6 5 8 8 11 8 6 9 8 7 8 11 8 3 3 4 5 6 6 3 2 4 5 5 5 4 4 1 -1 0 3 4 4 3 3 3 4 5 4 4 3 4 4 2 2 2 3 3 3 4 4 4 4 5 5 5 5 4 4 5 4 4 5 4 4 3 3 3 4 5 6 6 5 5 7 7 6 7
12 7 4 6 8 6 9 10 10 10 5 4 8 9 10 7 7 10 7 8 11 9 5 4 5 5 5 5 5 2 2 6 7 5 5 4 2 0 0 2 4 4 4 3 4 4 4 5 3 4 3 4 4 3 2 2 3 3 3 4 3 3 5 6 5 5 5 4 5 6 4 4 5 4 4 4 3 3 4 5 5 5 6 6 7 7 6 6
17 7 5 4 5 8 9 10 12 9 1 4 10 8 7 8 8 7 7 10 10 5 2 5 6 5 3 3 3 3 4 6 6 5 4 2 -0 0 2 3 4 3 4 4 5 4 4 5 4 4 4 4 5 3 3 2 3 3 3 3 3 4 5 7 6 5 5 4 6 5 3 4 5 4 5 5 4 4 4 5 5 6 7 7 8 8 7 6
22 11 7 5 6 8 7 7 10 5 1 7 8 5 7 8 7 6 10 11 7 2 2 5 5 4 5 5 4 4 7 6 4 3 1 1 -0 1 3 3 3 2 3 3 3 4 4 5 5 4 4 4 5 3 2 2 3 3 3 3 3 3 5 6 6 6 5 4 6 5 2 4 6 5 6 6 5 5 5 5 5 7 8 7 7 8 8 7
22 16 9 9 7 4 6 10 10 3 3 10 7 5 8 7 7 9 10 7 3 3 4 6 5 5 7 5 4 5 8 5 3 2 1 1 1 3 4 2 2 1 3 2 4 5 5 6 6 4 4 4 5 4 3 2 2 3 3 3 2 3 5 6 5 5 5 3 6 5 2 4 6 5 5 7 6 5 6 5 6 8 7 6 7 8 8 8
19 17 9 8 5 2 10 13 8 3 5 12 9 6 8 5 8 11 7 4 2 4 6 6 6 7 5 3 4 5 6 4 3 3 1 0 3 5 2 1 2 3 3 4 6 6 5 6 5 4 4 4 4 5 4 3 2 3 3 2 2 2 4 6 5 5 4 3 7 6 2 3 5 5 5 7 7 6 7 6 7 8 7 6 6 7 7 7
15 17 12 5 1 3 9 7 4 4 6 12 9 6 7 6 10 9 4 2 2 5 5 5 6 5 3 4 4 6 6 4 3 1 -1 1 4 3 1 1 3 4 5 6 7 6 6 6 5 5 4 4 4 4 4 3 2 3 3 3 2 2 4 5 4 4 4 2 6 5 1 1 3 4 5 7 6 5 7 7 8 8 7 6 6 7 7 5
13 16 14 5 2 5 5 2 3 6 8 11 8 4 7 9 11 6 2 3 3 6 5 4 6 4 4 6 6 7 6 3 2 1 0 4 4 1 1 3 4 6 7 7 7 7 6 6 5 5 4 3 4 4 4 3 2 3 3 4 3 1 3 5 4 4 3 0 3 4 0 0 3 4 6 7 6 5 7 8 8 9 7 7 6 7 7 5
14 11 15 9 5 5 3 2 4 7 10 9 6 5 9 11 8 3 2 4 6 7 5 5 6 5 4 6 8 7 5 4 1 1 4 5 2 1 3 4 6 7 6 6 6 5 5 6 5 4 4 4 4 4 5 4 3 3 3 4 4 2 1 4 4 2 2 0 1 2 -1 -1 2 3 6 7 5 5 7 8 8 9 7 7 6 7 8 6
15 9 14 14 10 8 4 5 7 12 13 6 5 7 10 9 4 2 3 5 7 6 6 7 4 4 5 5 8 6 4 2 2 4 4 2 1 3 4 5 6 5 4 5 6 5 4 5 4 4 4 3 4 4 4 4 5 4 2 2 3 3 1 2 3 1 2 2 1 1 -1 1 3 4 7 6 4 4 6 7 8 8 7 7 7 7 7 6
16 9 11 16 16 9 1 5 11 14 11 3 6 10 9 5 1 2 5 6 7 7 8 6 2 7 9 5 6 5 2 2 3 5 2 2 4 4 5 5 5 4 3 4 6 6 4 4 5 4 3 3 4 4 4 5 6 4 2 3 4 4 2 1 2 3 3 2 1 0 1 3 4 6 7 4 3 5 5 7 8 8 7 6 8 7 6 6
14 9 12 15 9 1 4 13 15 11 6 4 8 10 7 2 1 3 5 5 6 8 6 2 4 10 8 5 5 3 2 3 4 3 1 4 6 5 5 4 4 4 4 5 6 7 5 6 6 4 3 3 4 5 5 6 6 4 3 3 4 4 4 2 2 3 3 2 1 2 3 3 4 6 5 3 4 5 6 7 7 8 7 6 7 8 6 5
14 11 11 9 2 7 25 25 13 6 4 7 10 8 4 1 2 4 4 5 7 8 4 4 10 10 5 4 4 2 3 4 3 2 3 4 6 5 3 2 4 6 6 5 6 7 6 7 5 4 5 4 4 6 6 6 4 5 3 1 2 4 5 3 3 3 4 3 1 3 3 1 5 6 2 3 5 5 8 8 6 7 7 6 6 8 7 5
14 12 6 3 8 21 29 18 4 4 5 9 9 4 3 2 4 4 4 7 8 6 4 8 12 8 5 3 3 3 4 4 3 5 4 3 5 4 3 3 5 7 6 5 6 7 6 6 6 6 5 3 5 7 5 5 5 5 3 1 1 3 6 5 4 4 4 4 3 4 2 2 7 5 1 4 5 6 10 8 6 7 6 7 6 6 7 6
14 5 0 6 20 23 15 6 3 6 8 8 6 3 3 2 4 5 6 8 7 7 8 10 9 5 4 3 4 4 4 4 4 5 3 2 4 4 4 5 6 7 6 5 7 7 6 7 7 8 7 4 5 5 4 6 6 5 5 4 2 2 5 6 5 6 5 3 6 6 2 6 9 3 2 6 5 7 10 9 7 7 6 7 7 5 5 6
11 2 10 17 20 16 6 4 6 8 8 6 3 2 3 3 5 7 8 7 6 8 9 8 6 3 3 3 3 4 4 5 5 4 2 2 4 5 5 5 6 7 6 6 8 8 7 7 7 8 9 6 4 6 5 6 5 4 6 6 4 3 5 6 4 4 6 4 6 5 3 7 7 1 4 6 5 7 9 9 7 7 7 7 7 6 4 5
13 18 30 24 11 7 3 5 8 7 6 3 3 3 3 4 7 9 7 6 7 9 8 6 4 2 3 4 4 4 3 4 5 3 2 3 4 5 6 5 5 6 7 8 8 7 7 7 7 7 8 5 4 6 6 6 7 7 5 4 4 3 4 7 4 2 6 7 7 5 4 7 5 0 4 5 5 6 7 8 8 7 7 7 8 7 5 5
21 24 23 12 5 5 4 5 6 5 3 2 3 3 4 7 9 9 7 7 9 9 7 4 2 2 4 5 5 4 3 3 4 2 3 5 3 5 6 4 5 7 7 7 6 6 6 7 8 9 8 7 8 8 7 8 9 8 7 5 3 3 5 6 4 3 6 8 8 6 7 7 3 1 5 5 5 6 6 7 8 7 7 7 8 8 6 6
20 15 7 3 5 6 5 7 5 4 4 3 3 4 7 9 9 9 8 8 9 7 4 2 2 4 5 5 5 5 6 4 2 2 5 5 3 4 5 4 6 8 6 5 6 6 6 7 7 8 9 8 9 7 7 9 9 9 8 6 3 4 7 5 3 5 7 8 7 8 8 4 3 3 4 5 5 5 5 6 8 8 8 7 7 8 7 6
12 8 4 4 6 7 6 6 4 4 3 3 5 7 9 9 8 8 8 8 7 4 2 2 3 4 4 4 4 7 8 3 2 4 5 4 4 3 4 5 5 5 5 5 6 6 6 6 7 8 8 7 7 7 8 9 10 9 9 7 5 6 7 5 4 6 8 9 7 9 7 2 3 5 3 5 5 4 5 5 7 8 8 8 7 8 8 7
7 5 5 6 6 7 5 5 4 3 3 3 7 9 8 7 7 9 9 8 5 1 1 2 3 3 2 4 6 7 7 4 4 4 3 3 5 3 4 5 4 5 6 6 6 5 6 6 8 8 7 7 7 6 8 8 9 9 9 8 7 7 6 5 6 7 8 9 6 8 7 2 4 4 3 5 5 3 4 4 7 9 9 8 7 7 8 8
7 6 7 7 6 6 5 5 4 3 4 5 8 8 6 5 6 8 8 6 2 0 2 3 3 3 3 5 7 5 6 6 4 3 2 3 5 4 5 5 5 6 6 6 7 5 6 7 7 7 7 8 7 6 7 6 8 10 10 8 7 7 3 3 5 6 9 9 5 5 5 4 5 4 4 5 4 3 2 3 6 8 8 8 7 7 9 8
8 8 9 7 6 6 4 4 3 4 6 7 9 6 3 4 6 7 7 4 -0 0 2 2 2 2 4 7 7 4 5 6 3 3 3 2 5 5 4 5 5 7 6 7 7 6 7 7 6 7 7 8 7 7 7 6 7 9 9 8 8 7 4 3 4 5 8 8 5 4 3 5 5 4 5 5 5 3 2 3 5 7 8 9 9 7 8 8
8 8 9 6 5 5 3 3 4 5 8 9 9 5 2 4 5 6 6 2 -1 1 2 3 3 2 5 7 7 5 4 3 2 4 4 3 5 4 4 5 5 6 6 7 8 6 8 8 7 6 6 8 7 7 8 6 6 7 8 8 7 7 4 4 5 4 7 7 7 6 5 6 4 4 6 4 4 4 4 4 4 5 7 8 10 8 7 8
8 7 7 4 5 4 3 4 3 7 9 9 8 5 3 4 5 6 4 -0 -1 1 1 3 4 4 6 6 6 6 3 2 2 3 4 4 6 4 3 5 5 5 5 7 8 6 9 9 8 7 6 7 7 7 9 7 6 6 7 8 9 8 5 6 5 4 6 7 8 7 6 8 5 4 7 4 4 5 5 4 2 3 4 7 9 7 7 8
8 7 7 4 4 3 3 5 4 8 9 7 6 5 4 4 5 6 2 -1 1 3 3 3 3 3 6 6 5 5 2 3 3 2 4 5 5 4 3 5 5 4 5 7 8 7 9 9 8 7 7 8 8 7 8 8 7 6 5 6 9 8 7 8 6 4 6 6 7 7 7 10 7 5 7 5 6 6 5 5 4 2 2 5 7 6 7 8
7 6 7 3 3 3 5 6 6 9 8 6 6 5 4 4 5 4 -0 0 2 2 2 3 3 2 6 7 5 3 1 2 3 3 5 5 4 4 3 5 4 4 5 6 7 8 8 8 8 9 9 9 8 7 7 7 8 7 5 6 7 7 9 10 7 5 6 5 7 7 7 9 6 5 8 7 7 7 5 6 5 2 2 4 6 7 7 8
7 6 6 2 5 5 6 7 6 8 8 6 5 4 4 5 6 3 0 1 1 2 3 2 3 2 5 7 4 2 1 1 2 3 5 5 4 4 4 5 3 4 6 5 7 7 7 8 8 8 9 9 8 8 8 7 7 8 7 7 6 5 8 11 8 6 6 5 6 6 6 8 6 6 9 9 8 7 6 7 5 3 4 4 4 7 7 7
6 4 4 3 7 7 6 7 6 9 9 6 5 4 4 5 6 3 -0 -0 -2 2 5 1 1 3 4 6 4 2 1 2 2 2 3 3 3 3 3 4 3 5 6 6 7 5 5 8 7 7 8 8 8 8 9 8 8 8 7 7 6 5 7 10 9 6 6 6 6 6 6 7 7 7 8 9 9 8 7 7 5 4 5 4 3 5 6 6
5 2 4 6 9 7 7 7 7 10 8 5 5 4 6 6 5 2 0 1 -1 1 4 2 2 3 3 4 4 2 1 2 2 2 3 3 3 4 4 4 4 5 5 5 6 5 5 7 5 6 7 8 8 10 9 8 8 8 7 8 7 6 7 8 7 8 8 7 7 6 5 6 8 5 6 9 9 10 9 7 6 5 5 5 3 3 4 6
2 3 7 7 8 7 8 7 7 9 5 5 6 6 7 5 4 3 1 -0 0 2 4 3 2 1 3 4 3 3 2 2 2 3 3 3 3 4 4 4 4 5 3 3 5 4 5 6 4 5 6 6 7 9 10 9 8 8 8 9 7 7 7 5 7 9 8 6 6 6 4 5 9 5 5 11 11 11 10 7 7 6 5 5 3 3 6 5
1 5 8 7 8 7 7 7 7 7 4 6 7 5 6 5 4 5 1 -2 1 5 4 2 2 2 2 2 2 3 2 2 3 3 2 2 2 3 3 3 4 5 3 4 5 3 4 5 3 4 6 5 5 7 9 9 8 8 8 9 8 9 8 6 7 8 7 6 5 7 5 3 8 6 5 12 13 11 11 9 9 7 5 5 2 4 7 6
2 6 7 6 8 7 6 7 7 5 4 6 5 5 6 4 4 4 2 -0 3 5 3 2 4 3 2 1 1 2 2 3 3 2 2 2 2 3 3 4 5 5 4 4 5 3 4 5 4 5 5 5 6 6 7 9 8 8 9 10 9 9 10 9 7 6 7 7 4 7 5 1 6 7 5 11 12 12 12 10 10 9 5 4 4 6 7 6
3 7 6 7 8 6 6 8 7 5 5 6 6 6 5 4 4 3 3 4 4 5 3 3 4 3 3 3 2 2 2 3 2 2 2 2 3 3 3 5 5 4 4 4 5 4 4 5 4 5 6 6 7 7 7 8 8 8 9 11 10 10 10 9 8 7 5 6 8 9 3 -0 6 7 5 9 10 11 13 11 11 10 6 5 5 6 7 7
4 7 6 8 7 5 7 7 6 5 6 7 6 6 4 3 3 3 5 6 5 5 5 5 5 5 5 4 2 2 2 2 2 2 2 2 3 3 3 5 5 4 4 4 4 4 4 5 5 6 6 7 8 7 7 8 7 8 9 10 10 11 10 7 7 8 5 6 10 9 3 3 6 6 4 7 7 9 13 12 11 10 8 8 7 7 7 7
7 8 7 8 6 6 7 6 7 7 7 8 5 4 4 3 4 5 6 6 5 6 6 5 6 5 5 4 3 3 2 3 2 1 2 2 3 3 4 5 4 5 4 3 4 4 4 5 4 5 6 6 8 8 7 8 8 8 8 8 9 10 11 8 7 8 6 5 7 7 6 6 7 6 6 6 6 8 11 11 10 9 9 10 9 9 9 7
9 7 7 8 6 7 7 6 8 8 8 7 5 5 5 4 5 5 6 6 5 5 5 5 5 5 5 4 3 3 2 2 2 1 2 3 3 3 4 5 5 5 5 4 4 4 4 4 3 3 4 5 7 7 7 8 7 8 7 8 9 10 11 10 8 9 8 6 6 7 7 5 5 7 6 7 6 7 10 9 7 8 9 9 9 11 11 9
8 7 8 8 6 7 7 6 7 7 7 7 6 6 4 4 5 5 5 6 6 6 7 7 6 6 6 5 4 4 3 2 3 2 3 3 3 4 4 4 4 5 5 4 4 4 3 4 3 3 3 5 6 7 7 7 6 7 7 8 9 9 10 11 9 8 8 8 7 9 9 6 5 8 7 8 8 6 7 7 7 8 8 8 10 11 11 10
8 8 8 7 7 7 7 8 8 8 8 7 5 5 3 4 6 7 7 6 5 6 6 6 6 6 6 6 5 5 4 4 4 3 3 4 4 5 5 5 4 4 4 3 4 4 3 4 4 3 4 6 6 7 7 6 5 7 8 10 10 9 9 10 10 9 7 7 7 8 10 7 4 6 7 8 8 7 6 6 7 8 7 7 9 9 10 10
8 8 7 7 8 8 8 9 8 6 6 5 5 6 7 7 7 5 4 4 3 4 4 4 5 4 5 5 5 5 5 5 4 3 4 5 5 5 5 5 5 4 4 3 3 3 3 4 4 3 4 5 6 6 6 5 6 7 8 10 11 9 7 7 8 9 7 6 5 4 8 7 3 5 7 6 8 7 7 7 8 8 7 7 7 7 7 8
9 7 6 7 7 8 7 7 6 5 5 6 7 8 7 5 2 1 2 3 4 4 4 5 5 5 5 5 5 5 4 4 4 5 5 5 5 6 5 5 5 5 4 3 3 3 3 4 4 4 5 7 8 7 6 6 6 7 8 10 11 10 9 7 7 8 7 7 5 4 6 6 4 7 7 6 7 8 7 7 7 8 8 6 6 5 5 7
7 5 5 5 6 8 7 5 6 6 7 8 6 4 1 -0 1 2 4 5 6 6 6 6 6 6 6 5 5 5 5 5 6 5 5 5 5 5 5 5 5 4 4 3 3 3 4 4 4 4 3 5 5 4 5 6 6 7 8 10 12 10 8 6 5 6 6 6 5 5 6 6 6 7 6 5 7 7 7 7 5 6 7 6 5 5 4 5
6 4 5 6 5 7 7 5 6 7 7 4 1 -1 -1 2 4 5 6 7 8 8 7 7 7 7 6 6 6 6 6 6 6 6 5 5 5 4 4 4 4 3 3 3 4 4 5 5 6 6 5 3 2 1 3 5 5 7 8 10 12 11 7 5 5 5 6 7 6 5 4 3 5 7 7 6 7 6 5 5 5 5 6 6 6 4 4 5
6 2 4 7 6 6 7 6 6 6 4 0 -1 1 4 6 7 7 8 8 8 8 8 8 8 8 7 7 6 6 7 6 6 6 5 5 4 4 4 3 3 4 3 4 5 5 6 6 7 10 10 8 9 10 9 9 8 8 9 10 12 12 8 5 5 5 6 8 7 5 2 2 4 5 5 5 5 5 5 4 4 4 5 6 6 4 4 4
7 3 4 7 7 6 6 6 5 3 1 0 3 5 7 8 8 8 8 9 9 9 9 9 8 7 7 7 7 7 7 6 6 6 6 5 5 5 5 4 4 4 4 5 5 5 6 6 7 10 9 6 9 12 10 9 9 8 9 10 11 12 8 5 5 5 6 7 5 3 3 6 8 6 4 5 6 5 6 5 3 3 4 5 6 5 4 3
7 4 5 6 6 6 5 5 4 3 3 5 7 8 8 8 8 8 9 10 10 9 9 8 8 8 8 8 8 8 7 7 7 7 7 6 6 6 6 5 5 5 5 5 5 5 6 6 6 8 8 4 6 9 8 8 8 7 9 10 10 11 9 6 5 4 5 6 5 3 4 6 9 7 4 7 7 6 7 7 4 3 3 3 4 4 3 3
6 5 6 6 6 5 4 4 4 4 5 7 7 7 8 8 9 9 10 10 9 9 9 9 8 8 9 9 8 7 7 7 7 7 6 6 6 6 6 6 5 6 5 5 5 6 6 6 5 7 9 6 6 9 9 9 9 8 9 9 9 10 8 6 6 4 4 6 5 4 5 5 7 5 3 4 6 6 8 9 7 5 4 3 3 2 2 2
6 6 5 6 8 7 5 5 5 5 6 7 7 7 8 9 9 10 9 9 9 8 8 8 8 8 7 6 6 6 5 5 5 5 5 5 6 5 6 6 5 6 6 5 6 6 6 6 5 6 8 7 6 8 10 10 10 9 9 7 7 9 8 7 7 3 3 6 5 4 5 4 4 4 2 3 4 4 7 9 8 7 6 5 3 2 3 2
7 7 6 6 6 6 6 7 6 6 6 7 6 6 6 7 8 9 9 8 7 6 6 5 5 4 4 3 3 3 3 3 3 3 3 4 5 5 5 6 6 6 6 5 7 7 6 7 5 4 7 7 5 6 8 9 10 11 9 7 7 8 6 7 8 4 3 6 5 4 5 4 3 2 2 3 2 3 6 9 8 7 8 7 4 3 3 3
7 6 6 6 6 6 6 6 6 6 5 5 5 5 5 5 6 7 6 5 5 4 3 2 2 2 2 2 1 2 2 2 2 3 3 4 5 4 5 6 6 6 6 6 7 7 6 7 6 4 7 7 5 5 7 9 12 10 7 7 7 6 4 7 9 6 4 6 5 3 4 4 4 3 2 2 2 3 5 7 8 8 8 7 5 4 3 4
6 6 6 6 6 6 5 6 6 5 5 5 5 5 4 4 4 4 3 3 3 2 1 2 2 2 2 1 2 2 2 3 3 4 4 4 5 6 6 7 7 7 7 7 7 7 7 7 7 6 7 7 6 5 6 12 14 8 5 8 7 4 4 6 10 9 5 4 4 2 3 3 3 3 2 2 3 4 4 6 7 8 8 6 5 5 4 4
Height
5812 5814 5816 5818 5819 5821 5823 5824 5827 5828 5830 5833 5834 5834 5835 5836 5837 5838 5839 5840 5840 5841 5842 5842 5842 5843 5843 5843 5843 5843 5843 5842 5842 5844 5843 5842 5841 5841 5841 5840 5839 5838 5837 5836 5836 5835 5835 5834 5834 5833 5832 5830 5829 5826 5824 5823 5821 5819 5818 5816 5814 5812 5810 5809 5806 5804 5802 5799 5796 5794 5791 5788 5785 5782 5779 5775 5772 5768 5765 5762 5757 5752 5748 5742 5737 5730 5723 5716
5813 5814 5815 5817 5819 5821 5823 5825 5827 5829 5831 5833 5834 5834 5835 5836 5838 5838 5839 5840 5841 5841 5842 5843 5843 5843 5844 5844 5844 5844 5843 5842 5844 5844 5843 5842 5842 5841 5840 5840 5839 5838 5837 5837 5836 5835 5835 5835 5833 5832 5831 5830 5827 5825 5824 5822 5820 5818 5817 5815 5812 5811 5809 5807 5804 5802 5799 5797 5795 5792 5789 5786 5783 5779 5776 5771 5768 5765 5761 5756 5752 5747 5743 5738 5732 5725 5718 5710
5813 5814 5816 5817 5819 5821 5823 5825 5828 5829 5831 5833 5833 5834 5836 5837 5838 5839 5840 5841 5841 5842 5842 5843 5843 5844 5844 5844 5844 5844 5843 5843 5844 5844 5843 5843 5842 5841 5841 5840 5839 5838 5838 5837 5836 5835 5835 5834 5832 5831 5829 5828 5826 5824 5822 5820 5819 5817 5815 5813 5812 5809 5807 5805 5802 5799 5798 5796 5793 5790 5787 5784 5781 5777 5773 5769 5765 5760 5756 5751 5747 5743 5738 5733 5727 5720 5713 5705
5813 5814 5816 5817 5819 5821 5822 5825 5828 5830 5831 5832 5833 5834 5836 5837 5838 5839 5840 5841 5842 5842 5843 5843 5844 5844 5844 5844 5844 5844 5844 5844 5844 5844 5843 5843 5842 5841 5840 5840 5839 5838 5838 5837 5836 5835 5834 5832 5831 5830 5829 5827 5825 5823 5821 5819 5817 5815 5814 5813 5810 5807 5805 5803 5800 5798 5796 5794 5791 5788 5785 5782 5779 5775 5770 5766 5761 5756 5752 5748 5744 5739 5734 5728 5722 5715 5708 5699
5813 5814 5816 5818 5819 5821 5822 5825 5828 5830 5831 5832 5833 5835 5836 5837 5838 5839 5840 5841 5842 5842 5843 5843 5844 5844 5844 5844 5844 5844 5844 5844 5844 5843 5843 5843 5842 5841 5840 5840 5839 5838 5837 5836 5835 5834 5833 5832 5831 5829 5827 5825 5823 5821 5820 5818 5816 5814 5812 5811 5808 5806 5803 5801 5799 5797 5794 5793 5791 5787 5783 5780 5777 5772 5767 5762 5758 5753 5749 5745 5740 5735 5729 5723 5717 5710 5703 5694
5813 5814 5816 5817 5819 5821 5823 5825 5828 5829 5831 5832 5833 5835 5836 5837 5839 5840 5841 5841 5842 5842 5843 5843 5844 5844 5845 5845 5844 5844 5844 5844 5844 5844 5843 5843 5842 5841 5841 5840 5839 5838 5837 5836 5835 5834 5833 5832 5830 5827 5825 5824 5822 5820 5818 5817 5815 5813 5811 5809 5807 5805 5802 5800 5798 5796 5794 5792 5789 5785 5781 5777 5772 5768 5765 5760 5756 5751 5746 5740 5735 5730 5724 5718 5712 5705 5697 5689
5813 5814 5816 5817 5819 5821 5823 5826 5828 5830 5831 5832 5833 5835 5836 5838 5839 5840 5841 5841 5841 5842 5843 5844 5844 5844 5845 5845 5844 5844 5844 5844 5844 5844 5844 5843 5842 5841 5841 5840 5839 5838 5837 5835 5834 5833 5832 5830 5828 5826 5825 5823 5821 5819 5818 5816 5814 5812 5810 5808 5806 5804 5801 5799 5797 5795 5792 5790 5787 5783 5777 5773 5769 5766 5762 5758 5752 5747 5741 5736 5731 5725 5719 5713 5707 5700 5692 5682
5812 5814 5816 5817 5819 5821 5823 5826 5828 5830 5831 5832 5833 5834 5836 5838 5839 5840 5840 5841 5842 5843 5843 5844 5844 5845 5845 5845 5844 5844 5844 5844 5844 5844 5844 5843 5842 5841 5841 5840 5838 5837 5836 5835 5833 5832 5831 5829 5827 5825 5823 5821 5820 5818 5817 5815 5812 5811 5809 5807 5805 5803 5800 5798 5795 5793 5790 5787 5784 5780 5774 5771 5768 5764 5759 5754 5748 5743 5737 5733 5727 5721 5715 5708 5701 5694 5685 5676
5812 5814 5816 5817 5819 5821 5824 5826 5828 5830 5831 5832 5833 5835 5837 5838 5839 5840 5840 5841 5842 5843 5844 5844 5845 5845 5845 5845 5844 5844 5845 5845 5845 5844 5843 5843 5842 5841 5840 5839 5838 5837 5835 5834 5833 5832 5830 5828 5826 5824 5822 5820 5819 5817 5816 5813 5811 5809 5807 5806 5805 5802 5799 5796 5792 5790 5788 5783 5780 5777 5773 5769 5765 5760 5756 5750 5745 5740 5735 5730 5724 5717 5711 5704 5696 5687 5679 5670
5812 5813 5815 5817 5820 5822 5824 5826 5828 5830 5831 5832 5833 5835 5837 5839 5839 5840 5840 5841 5843 5844 5844 5845 5845 5845 5845 5845 5845 5845 5845 5845 5845 5844 5843 5843 5842 5841 5840 5839 5838 5836 5835 5834 5833 5831 5829 5828 5826 5823 5821 5819 5818 5816 5814 5811 5809 5807 5805 5804 5803 5801 5797 5794 5790 5787 5784 5780 5777 5774 5770 5766 5761 5757 5753 5748 5743 5738 5732 5726 5720 5713 5707 5699 5691 5682 5673 5664
5811 5812 5815 5817 5820 5822 5824 5826 5828 5829 5831 5832 5834 5836 5838 5839 5839 5840 5841 5842 5843 5844 5844 5845 5845 5845 5845 5845 5845 5845 5845 5845 5845 5844 5843 5843 5842 5841 5840 5839 5837 5836 5835 5834 5832 5831 5829 5827 5825 5822 5820 5819 5817 5814 5812 5810 5808 5806 5804 5803 5800 5798 5796 5792 5788 5784 5781 5778 5775 5772 5767 5763 5759 5754 5749 5745 5740 5734 5728 5722 5716 5710 5703 5695 5686 5678 5668 5658
5810 5812 5814 5817 5819 5821 5824 5826 5828 5829 5831 5832 5834 5837 5838 5839 5840 5840 5842 5843 5844 5844 5845 5845 5845 5845 5845 5845 5845 5846 5846 5845 5845 5844 5843 5842 5841 5840 5839 5838 5837 5836 5835 5833 5832 5830 5828 5826 5823 5822 5820 5818 5815 5813 5811 5809 5807 5805 5802 5799 5797 5795 5793 5790 5786 5781 5778 5776 5772 5768 5764 5759 5755 5750 5746 5742 5736 5730 5724 5718 5712 5706 5699 5691 5682 5673 5664 5654
5809 5811 5814 5817 5819 5822 5824 5826 5828 5830 5831 5833 5835 5837 5838 5839 5840 5841 5842 5843 5844 5845 5845 5845 5845 5845 5845 5845 5846 5846 5846 5845 5844 5844 5843 5842 5841 5840 5839 5838 5837 5836 5834 5832 5830 5829 5827 5825 5823 5821 5819 5816 5814 5812 5809 5807 5806 5803 5800 5797 5795 5793 5790 5788 5784 5779 5776 5774 5769 5764 5760 5756 5752 5748 5744 5739 5733 5727 5721 5715 5709 5702 5694 5686 5677 5669 5660 5651
5808 5811 5814 5817 5819 5821 5823 5825 5828 5829 5831 5833 5835 5837 5838 5839 5840 5841 5842 5843 5844 5845 5845 5845 5845 5845 5845 5845 5846 5846 5846 5845 5844 5843 5842 5842 5841 5840 5839 5838 5837 5835 5833 5831 5829 5827 5826 5824 5822 5819 5817 5815 5813 5810 5808 5807 5804 5801 5799 5796 5794 5791 5788 5785 5782 5778 5774 5771 5767 5762 5758 5754 5750 5746 5742 5736 5729 5723 5716 5711 5704 5697 5689 5681 5673 5665 5657 5648
5808 5811 5813 5816 5818 5820 5822 5825 5827 5829 5831 5833 5835 5837 5838 5840 5841 5842 5843 5844 5844 5844 5845 5845 5845 5845 5845 5846 5846 5846 5846 5845 5844 5843 5842 5841 5840 5839 5839 5838 5836 5834 5832 5830 5827 5825 5823 5822 5819 5817 5815 5813 5811 5809 5808 5805 5802 5800 5798 5795 5792 5789 5786 5783 5780 5777 5772 5767 5764 5760 5756 5752 5748 5744 5738 5732 5726 5719 5713 5707 5700 5692 5684 5676 5668 5661 5653 5645
5809 5812 5814 5815 5818 5820 5823 5825 5827 5829 5831 5834 5835 5837 5839 5840 5841 5842 5843 5844 5844 5845 5845 5845 5845 5845 5846 5846 5846 5846 5846 5845 5844 5843 5842 5841 5840 5839 5838 5837 5835 5833 5831 5829 5827 5825 5823 5820 5818 5816 5814 5811 5808 5807 5806 5803 5801 5799 5796 5793 5789 5786 5784 5780 5777 5774 5770 5765 5761 5758 5753 5750 5746 5740 5734 5728 5722 5715 5709 5703 5695 5687 5679 5671 5664 5656 5648 5640
5809 5811 5813 5815 5818 5821 5823 5825 5828 5830 5832 5834 5835 5837 5839 5840 5841 5843 5843 5844 5844 5844 5845 5845 5845 5846 5846 5846 5846 5846 5845 5844 5844 5843 5842 5841 5840 5839 5838 5836 5834 5832 5830 5829 5827 5825 5823 5820 5818 5816 5812 5808 5806 5805 5803 5802 5800 5797 5794 5791 5787 5784 5781 5777 5774 5771 5767 5763 5759 5755 5750 5746 5742 5736 5729 5724 5718 5711 5705 5698 5690 5682 5674 5666 5659 5651 5643 5636
5809 5810 5812 5815 5819 5821 5824 5826 5828 5830 5832 5834 5836 5838 5839 5841 5842 5843 5843 5844 5844 5844 5845 5845 5846 5846 5846 5846 5846 5846 5845 5844 5843 5842 5842 5841 5840 5839 5837 5835 5833 5831 5830 5828 5826 5823 5820 5819 5816 5813 5810 5809 5808 5805 5803 5800 5798 5794 5791 5788 5785 5781 5777 5774 5770 5767 5764 5760 5756 5752 5746 5742 5737 5731 5725 5719 5713 5707 5700 5694 5686 5678 5670 5663 5656 5648 5641 5634
5808 5811 5813 5817 5820 5822 5824 5826 5828 5830 5832 5834 5836 5838 5839 5841 5842 5843 5843 5843 5844 5845 5845 5846 5846 5847 5847 5846 5846 5846 5845 5844 5843 5842 5842 5841 5839 5838 5836 5834 5832 5831 5829 5827 5824 5822 5819 5817 5814 5812 5811 5811 5808 5804 5801 5798 5795 5791 5788 5785 5782 5778 5774 5770 5767 5763 5760 5757 5753 5748 5742 5738 5734 5727 5721 5715 5709 5703 5697 5690 5682 5674 5667 5660 5653 5646 5639 5631
5809 5811 5814 5818 5820 5823 5825 5827 5829 5831 5833 5835 5836 5838 5840 5841 5842 5843 5843 5843 5844 5845 5845 5846 5847 5847 5847 5846 5846 5845 5844 5844 5843 5842 5842 5840 5839 5837 5835 5833 5832 5830 5827 5825 5823 5821 5819 5816 5813 5812 5811 5808 5804 5801 5798 5795 5792 5789 5785 5782 5779 5775 5771 5767 5763 5760 5757 5753 5750 5745 5740 5735 5730 5723 5717 5711 5706 5701 5694 5686 5678 5670 5664 5657 5650 5643 5636 5628
5810 5813 5816 5818 5821 5823 5825 5827 5829 5831 5833 5835 5837 5839 5840 5841 5842 5842 5843 5843 5844 5845 5846 5846 5847 5847 5847 5846 5846 5845 5844 5843 5842 5842 5841 5840 5838 5836 5834 5832 5830 5828 5826 5824 5822 5820 5817 5815 5813 5811 5809 5805 5802 5799 5796 5793 5790 5787 5784 5779 5776 5773 5769 5765 5761 5756 5753 5749 5746 5743 5738 5732 5726 5719 5713 5708 5703 5697 5690 5682 5674 5668 5661 5654 5647 5640 5633 5625
5811 5814 5817 5819 5821 5824 5826 5828 5830 5832 5834 5836 5838 5839 5840 5841 5842 5842 5843 5844 5845 5845 5846 5847 5847 5847 5846 5846 5845 5844 5844 5843 5843 5842 5840 5839 5837 5835 5833 5831 5829 5827 5825 5823 5821 5818 5816 5814 5812 5809 5806 5803 5800 5797 5794 5791 5787 5784 5781 5778 5774 5770 5767 5763 5758 5753 5750 5747 5744 5741 5735 5727 5721 5715 5710 5705 5699 5693 5686 5679 5672 5666 5659 5651 5643 5636 5629 5622
5813 5816 5818 5820 5822 5825 5827 5829 5831 5833 5835 5837 5839 5840 5840 5841 5841 5843 5844 5844 5845 5846 5846 5847 5847 5847 5846 5846 5845 5844 5844 5843 5842 5840 5839 5837 5836 5834 5832 5830 5828 5826 5824 5821 5819 5817 5815 5813 5810 5807 5804 5802 5799 5796 5792 5788 5785 5782 5779 5776 5773 5768 5764 5760 5756 5751 5747 5744 5741 5738 5732 5724 5717 5712 5707 5702 5696 5689 5682 5676 5670 5664 5656 5648 5641 5634 5628 5621
5815 5817 5818 5821 5823 5826 5828 5830 5832 5834 5836 5837 5839 5840 5840 5841 5842 5843 5844 5845 5845 5846 5846 5847 5847 5846 5846 5845 5845 5844 5843 5842 5841 5840 5838 5837 5835 5833 5831 5829 5827 5824 5822 5820 5818 5815 5813 5811 5808 5806 5803 5800 5797 5794 5790 5787 5784 5781 5777 5774 5770 5766 5761 5757 5754 5750 5745 5741 5737 5733 5729 5721 5714 5709 5704 5698 5692 5685 5679 5673 5667 5660 5652 5646 5640 5633 5627 5619
5815 5818 5820 5822 5824 5827 5829 5831 5833 5835 5837 5838 5839 5840 5840 5841 5842 5843 5844 5845 5846 5846 5847 5847 5846 5846 5846 5845 5844 5844 5842 5841 5840 5839 5838 5836 5835 5833 5831 5829 5826 5824 5821 5819 5816 5814 5812 5809 5806 5804 5801 5798 5795 5792 5789 5786 5782 5778 5775 5771 5767 5763 5759 5755 5751 5747 5742 5737 5733 5728 5723 5718 5711 5706 5700 5694 5688 5682 5676 5670 5663 5656 5651 5645 5639 5632 5624 5616
5817 5819 5821 5823 5826 5828 5830 5832 5834 5836 5837 5838 5839 5840 5840 5841 5842 5843 5844 5845 5846 5846 5846 5846 5846 5846 5845 5845 5844 5843 5842 5841 5840 5839 5837 5836 5834 5832 5830 5828 5825 5822 5820 5817 5815 5812 5810 5807 5805 5802 5799 5796 5793 5790 5787 5784 5780 5776 5772 5768 5764 5761 5758 5754 5749 5745 5739 5733 5728 5723 5719 5715 5709 5702 5697 5691 5686 5680 5674 5667 5661 5655 5649 5643 5637 5629 5620 5612
5818 5820 5823 5825 5827 5829 5831 5833 5835 5836 5837 5839 5839 5840 5840 5841 5842 5843 5845 5846 5846 5846 5846 5846 5846 5845 5845 5845 5844 5843 5842 5841 5839 5838 5837 5835 5833 5831 5828 5826 5824 5821 5818 5816 5813 5811 5808 5806 5802 5799 5797 5794 5791 5788 5785 5782 5778 5774 5769 5766 5763 5759 5755 5751 5747 5742 5736 5730 5725 5720 5715 5711 5705 5700 5695 5690 5684 5678 5672 5666 5660 5653 5647 5640 5632 5624 5616 5609
5820 5822 5824 5826 5828 5830 5832 5833 5835 5836 5838 5839 5840 5840 5841 5842 5843 5844 5845 5846 5846 5846 5846 5846 5846 5845 5845 5844 5843 5842 5841 5840 5839 5837 5836 5834 5832 5830 5828 5825 5822 5820 5817 5815 5812 5810 5806 5803 5800 5798 5795 5792 5789 5786 5782 5778 5775 5771 5767 5764 5760 5756 5752 5748 5744 5740 5734 5727 5721 5716 5711 5706 5703 5697 5692 5687 5681 5675 5669 5663 5657 5651 5643 5635 5627 5620 5614 5607
5821 5823 5825 5827 5829 5831 5832 5834 5835 5837 5838 5839 5840 5840 5841 5842 5843 5844 5845 5846 5846 5846 5846 5846 5845 5845 5844 5843 5842 5841 5840 5839 5838 5836 5835 5833 5831 5828 5826 5824 5821 5819 5816 5814 5811 5808 5805 5801 5799 5796 5793 5789 5786 5783 5779 5775 5772 5768 5765 5762 5757 5753 5749 5745 5741 5737 5732 5724 5717 5713 5708 5704 5700 5696 5690 5683 5678 5672 5665 5659 5653 5646 5638 5631 5624 5619 5612 5606
5822 5824 5826 5828 5830 5831 5833 5834 5836 5837 5838 5839 5840 5840 5841 5842 5843 5844 5845 5846 5846 5846 5846 5845 5845 5844 5843 5842 5841 5840 5840 5838 5837 5835 5833 5832 5829 5827 5825 5822 5820 5818 5816 5813 5810 5807 5803 5800 5797 5794 5790 5787 5783 5780 5776 5772 5769 5766 5762 5759 5754 5750 5746 5742 5738 5733 5728 5722 5715 5710 5706 5702 5696 5692 5687 5681 5674 5668 5661 5655 5649 5642 5635 5629 5624 5618 5612 5605
5824 5826 5828 5829 5831 5832 5834 5835 5836 5837 5838 5839 5840 5841 5842 5843 5844 5845 5845 5846 5846 5846 5845 5845 5844 5844 5843 5842 5841 5840 5839 5837 5835 5834 5832 5829 5827 5825 5823 5821 5820 5818 5815 5813 5809 5805 5802 5799 5796 5792 5788 5784 5780 5777 5774 5770 5766 5762 5758 5754 5751 5747 5743 5738 5734 5729 5724 5719 5713 5707 5704 5701 5695 5689 5684 5678 5671 5665 5659 5653 5647 5640 5634 5629 5623 5617 5610 5603
5826 5827 5828 5830 5831 5833 5834 5835 5836 5837 5838 5839 5840 5841 5842 5843 5844 5845 5845 5845 5845 5845 5845 5844 5844 5843 5842 5841 5840 5839 5837 5836 5834 5832 5830 5828 5826 5824 5822 5820 5818 5816 5813 5810 5807 5804 5801 5797 5793 5790 5786 5783 5778 5774 5771 5768 5764 5759 5755 5751 5748 5744 5739 5734 5729 5725 5722 5718 5713 5706 5701 5699 5694 5687 5681 5675 5669 5663 5657 5652 5646 5639 5634 5628 5621 5615 5608 5600
5827 5828 5829 5831 5832 5833 5834 5836 5837 5838 5839 5839 5840 5841 5842 5843 5844 5844 5845 5845 5845 5845 5844 5844 5843 5842 5841 5840 5839 5838 5836 5834 5833 5831 5829 5827 5825 5823 5821 5819 5816 5813 5811 5808 5805 5802 5799 5795 5791 5787 5784 5780 5776 5772 5768 5764 5760 5756 5752 5747 5743 5738 5734 5730 5725 5722 5720 5717 5713 5706 5698 5694 5692 5686 5680 5674 5667 5662 5656 5650 5644 5638 5632 5626 5619 5612 5605 5597
5828 5829 5830 5831 5832 5833 5834 5836 5837 5838 5839 5840 5841 5842 5842 5843 5844 5844 5845 5845 5844 5844 5844 5843 5842 5841 5840 5839 5838 5836 5835 5833 5832 5830 5828 5826 5824 5822 5819 5817 5814 5811 5809 5806 5802 5799 5796 5792 5788 5785 5781 5777 5773 5769 5765 5760 5757 5753 5748 5743 5739 5735 5731 5726 5722 5717 5715 5713 5712 5706 5696 5691 5689 5684 5678 5672 5666 5660 5654 5648 5641 5635 5629 5623 5616 5608 5601 5594
5828 5829 5831 5832 5832 5833 5834 5836 5837 5838 5839 5840 5841 5842 5843 5843 5844 5844 5844 5844 5844 5844 5843 5842 5841 5840 5839 5838 5837 5835 5834 5832 5830 5829 5827 5825 5822 5820 5817 5815 5812 5809 5806 5804 5800 5797 5794 5790 5787 5783 5779 5775 5772 5767 5763 5758 5754 5750 5746 5742 5738 5734 5730 5725 5720 5715 5711 5708 5707 5703 5695 5689 5686 5681 5675 5669 5664 5658 5651 5645 5639 5632 5626 5619 5611 5604 5597 5592
5829 5830 5831 5832 5833 5834 5835 5836 5837 5838 5839 5840 5841 5842 5843 5843 5844 5844 5844 5844 5843 5843 5842 5841 5840 5839 5838 5837 5836 5834 5832 5831 5829 5827 5825 5823 5821 5818 5816 5813 5810 5807 5804 5801 5798 5795 5792 5789 5785 5781 5777 5774 5770 5766 5761 5756 5752 5747 5744 5740 5736 5731 5727 5723 5718 5713 5708 5703 5702 5699 5691 5685 5683 5678 5672 5667 5661 5655 5649 5642 5636 5629 5622 5615 5607 5601 5596 5589
5829 5830 5831 5832 5833 5834 5835 5836 5837 5839 5839 5840 5841 5842 5842 5843 5843 5843 5843 5843 5843 5842 5841 5841 5840 5838 5837 5836 5834 5833 5831 5829 5827 5825 5823 5821 5819 5817 5814 5811 5808 5805 5802 5799 5796 5793 5790 5787 5783 5779 5776 5772 5768 5764 5760 5755 5750 5746 5741 5737 5732 5728 5723 5719 5715 5711 5705 5699 5698 5696 5687 5680 5678 5674 5668 5664 5658 5652 5646 5638 5632 5626 5618 5611 5605 5599 5593 5587
5829 5830 5831 5832 5833 5834 5835 5837 5838 5839 5839 5840 5841 5842 5842 5843 5843 5843 5842 5842 5842 5841 5840 5839 5838 5837 5836 5834 5833 5831 5829 5828 5826 5824 5822 5820 5817 5815 5812 5809 5806 5803 5800 5797 5794 5791 5788 5784 5781 5778 5774 5770 5766 5762 5757 5753 5749 5744 5739 5734 5728 5724 5720 5716 5712 5708 5702 5696 5693 5693 5686 5677 5673 5670 5665 5660 5654 5648 5642 5636 5629 5622 5615 5608 5602 5596 5589 5583
5829 5830 5832 5833 5834 5835 5836 5837 5838 5839 5840 5840 5841 5842 5842 5842 5842 5842 5842 5841 5841 5840 5839 5838 5837 5836 5834 5833 5831 5830 5828 5826 5824 5822 5820 5817 5815 5813 5810 5807 5804 5801 5798 5795 5792 5789 5785 5782 5778 5775 5771 5767 5763 5759 5755 5751 5747 5743 5737 5732 5726 5721 5717 5713 5709 5705 5700 5693 5688 5688 5685 5676 5670 5668 5663 5657 5651 5645 5639 5633 5626 5618 5611 5605 5599 5593 5586 5579
5830 5831 5832 5833 5834 5835 5836 5837 5838 5839 5840 5840 5841 5841 5841 5841 5841 5841 5841 5840 5839 5839 5838 5837 5835 5834 5833 5831 5830 5828 5826 5824 5822 5820 5818 5815 5813 5810 5808 5805 5802 5799 5796 5792 5789 5786 5783 5779 5775 5772 5769 5765 5760 5756 5753 5748 5744 5740 5735 5730 5724 5719 5714 5710 5707 5704 5699 5692 5685 5682 5681 5675 5669 5666 5660 5654 5649 5643 5637 5630 5622 5615 5609 5603 5596 5590 5583 5576
5830 5831 5833 5834 5834 5835 5836 5837 5838 5839 5840 5840 5841 5841 5841 5841 5840 5840 5840 5839 5838 5837 5836 5835 5834 5832 5831 5829 5828 5826 5824 5822 5820 5818 5815 5813 5810 5808 5805 5802 5799 5796 5793 5790 5787 5783 5780 5777 5773 5769 5766 5763 5758 5754 5750 5746 5741 5736 5732 5727 5722 5717 5712 5708 5705 5702 5697 5691 5684 5679 5678 5674 5668 5663 5658 5652 5646 5640 5633 5627 5620 5613 5607 5600 5594 5588 5581 5574
5831 5832 5833 5834 5835 5836 5837 5837 5838 5839 5839 5840 5840 5840 5840 5840 5839 5839 5838 5837 5836 5835 5834 5833 5832 5830 5829 5827 5826 5824 5822 5820 5818 5815 5813 5810 5808 5805 5802 5800 5797 5794 5791 5787 5784 5780 5777 5774 5771 5766 5762 5760 5756 5751 5748 5743 5738 5733 5729 5724 5720 5715 5710 5705 5702 5699 5695 5690 5684 5678 5676 5673 5666 5660 5655 5649 5643 5636 5629 5623 5616 5610 5605 5598 5592 5586 5579 5572
5832 5833 5833 5834 5835 5836 5837 5837 5838 5839 5839 5839 5839 5839 5839 5839 5838 5837 5837 5836 5835 5833 5832 5831 5830 5828 5827 5825 5823 5821 5819 5817 5815 5813 5810 5808 5805 5803 5800 5797 5794 5791 5788 5785 5781 5778 5774 5770 5768 5764 5760 5757 5754 5749 5745 5740 5735 5731 5726 5722 5718 5713 5709 5704 5700 5697 5693 5688 5682 5675 5672 5670 5664 5658 5652 5646 5639 5632 5625 5619 5614 5608 5602 5596 5590 5583 5576 5569
5832 5833 5834 5834 5835 5836 5836 5837 5838 5838 5838 5838 5838 5838 5838 5837 5836 5836 5835 5834 5833 5831 5830 5829 5827 5826 5824 5823 5821 5819 5817 5815 5813 5811 5808 5805 5803 5800 5797 5794 5791 5788 5785 5782 5778 5775 5771 5767 5763 5760 5756 5753 5750 5745 5740 5736 5732 5727 5724 5720 5716 5711 5707 5703 5699 5695 5691 5687 5681 5674 5669 5667 5662 5654 5648 5642 5635 5629 5622 5617 5612 5606 5600 5594 5587 5580 5573 5566
5832 5833 5834 5834 5835 5836 5836 5837 5837 5837 5838 5838 5837 5837 5836 5836 5835 5834 5833 5832 5830 5829 5828 5827 5825 5824 5822 5820 5818 5817 5815 5812 5810 5808 5806 5803 5800 5798 5795 5792 5789 5786 5782 5779 5775 5772 5769 5764 5760 5757 5752 5747 5744 5741 5737 5733 5729 5725 5722 5718 5714 5710 5705 5701 5696 5692 5688 5685 5681 5673 5666 5664 5661 5653 5646 5639 5633 5627 5622 5616 5610 5604 5598 5591 5584 5578 5571 5564
5832 5833 5834 5834 5835 5835 5836 5836 5836 5837 5837 5836 5836 5835 5834 5834 5833 5832 5830 5829 5828 5827 5826 5824 5823 5821 5820 5818 5816 5814 5812 5810 5807 5805 5803 5800 5798 5795 5792 5789 5786 5783 5779 5776 5773 5769 5767 5763 5758 5756 5752 5745 5742 5740 5736 5732 5729 5724 5720 5716 5712 5709 5704 5699 5694 5689 5685 5681 5678 5672 5663 5657 5656 5652 5645 5639 5632 5626 5620 5614 5608 5601 5595 5589 5582 5575 5568 5561
5832 5833 5834 5834 5834 5835 5835 5835 5836 5836 5835 5835 5834 5833 5833 5832 5831 5830 5828 5827 5826 5825 5823 5822 5820 5819 5817 5815 5813 5811 5809 5807 5805 5802 5800 5798 5795 5792 5789 5786 5783 5780 5777 5773 5770 5767 5764 5761 5756 5753 5751 5745 5741 5738 5734 5730 5726 5722 5718 5715 5711 5707 5703 5698 5692 5686 5682 5677 5673 5669 5662 5653 5649 5647 5641 5635 5630 5624 5617 5611 5605 5599 5592 5586 5579 5572 5565 5559
5832 5833 5833 5833 5834 5834 5834 5835 5834 5834 5834 5833 5832 5831 5831 5830 5828 5827 5826 5825 5824 5822 5821 5820 5818 5816 5815 5813 5811 5809 5806 5804 5802 5800 5797 5795 5792 5789 5786 5784 5780 5778 5774 5770 5768 5764 5760 5758 5754 5751 5749 5744 5738 5735 5732 5728 5724 5720 5716 5712 5708 5704 5700 5695 5689 5683 5678 5673 5668 5664 5660 5652 5645 5642 5638 5632 5626 5620 5614 5607 5602 5595 5589 5583 5576 5569 5562 5556
5832 5832 5833 5833 5833 5833 5833 5833 5833 5833 5832 5831 5831 5830 5829 5828 5826 5825 5824 5823 5822 5820 5819 5817 5816 5814 5812 5810 5808 5806 5804 5801 5799 5797 5794 5792 5789 5786 5783 5781 5777 5775 5771 5768 5765 5761 5757 5754 5751 5747 5746 5742 5736 5732 5729 5726 5722 5718 5713 5708 5704 5701 5697 5692 5687 5680 5674 5670 5665 5659 5656 5652 5644 5638 5634 5630 5623 5617 5610 5604 5598 5592 5585 5579 5572 5566 5560 5553
5831 5831 5832 5832 5832 5832 5832 5832 5831 5831 5830 5829 5829 5828 5827 5826 5824 5823 5822 5821 5820 5818 5817 5815 5813 5812 5810 5808 5806 5803 5801 5799 5796 5794 5791 5789 5786 5783 5780 5778 5774 5771 5768 5764 5761 5758 5754 5751 5747 5743 5742 5740 5734 5729 5726 5723 5719 5714 5709 5705 5700 5696 5693 5689 5684 5677 5670 5666 5662 5656 5651 5648 5643 5636 5631 5626 5620 5614 5608 5600 5594 5588 5581 5575 5569 5562 5556 5550
5830 5830 5831 5831 5831 5831 5830 5830 5830 5829 5828 5828 5827 5826 5825 5824 5822 5821 5820 5819 5817 5816 5814 5813 5811 5809 5807 5805 5803 5800 5798 5796 5793 5791 5788 5786 5783 5780 5777 5774 5771 5768 5765 5761 5758 5754 5750 5747 5743 5739 5737 5736 5732 5727 5723 5720 5715 5711 5706 5702 5697 5692 5689 5685 5681 5674 5667 5662 5659 5654 5648 5643 5638 5633 5627 5622 5616 5611 5604 5596 5589 5584 5577 5571 5565 5559 5553 5547
5829 5829 5829 5829 5829 5829 5829 5828 5828 5827 5826 5825 5825 5824 5823 5821 5820 5819 5818 5816 5815 5813 5812 5810 5808 5806 5804 5802 5800 5797 5795 5793 5790 5788 5785 5782 5780 5777 5774 5771 5768 5764 5761 5758 5754 5751 5746 5742 5739 5735 5732 5732 5728 5723 5720 5717 5712 5708 5703 5698 5694 5689 5684 5682 5679 5672 5665 5660 5655 5651 5645 5640 5634 5628 5622 5618 5613 5607 5601 5593 5585 5580 5574 5567 5561 5555 5549 5544